GEFSSGP_con_cape1000_258.txt.gz
Probability
68 61 58 65 61 32 0 0 0 0 0 0 0 0 0 0 0 3 6 10 10 10 13 19 26 29 26 23 23 19 23 19 13 13 13 13 19 19 26 23 26 26 19 23 29 32 32 32 45
55 48 48 61 45 0 0 0 0 0 0 0 0 0 0 0 0 0 3 6 10 10 13 16 26 26 29 23 19 23 19 10 10 10 10 13 13 13 19 23 29 26 26 23 26 26 32 32 35
48 35 52 52 6 0 0 0 0 0 0 0 0 0 0 0 0 3 6 3 10 10 13 13 19 23 23 23 19 16 16 13 10 10 10 10 10 16 19 23 26 26 23 19 16 29 29 26 29
48 39 45 19 0 0 0 0 0 0 0 0 0 0 0 3 3 3 3 3 6 6 10 16 23 23 13 13 16 13 13 10 6 6 6 10 10 16 16 19 23 26 26 23 13 19 19 26 16
42 48 26 0 0 0 0 0 0 0 0 0 0 0 0 0 3 3 3 3 0 6 10 10 19 23 19 16 13 13 13 13 10 10 13 10 13 19 16 26 23 19 19 19 19 23 23 16 10
48 42 6 0 0 0 0 0 0 0 0 0 0 0 0 0 3 3 0 3 0 6 10 10 19 23 23 13 13 16 23 23 19 19 19 13 16 16 13 10 16 19 16 13 16 16 13 16 6
35 16 0 0 0 0 0 0 0 0 0 0 0 0 0 3 3 3 3 3 3 3 10 6 10 10 19 23 23 19 13 19 16 16 16 19 16 10 10 10 13 16 16 13 13 10 13 10 6
19 13 0 0 0 0 0 0 0 0 0 0 0 0 3 6 6 6 6 6 6 3 3 6 6 10 10 13 16 16 13 19 19 13 19 19 23 16 6 6 16 6 3 10 6 13 3 3 0
3 6 0 0 0 0 0 0 0 0 0 0 0 0 6 6 3 6 6 3 3 3 6 6 6 6 10 6 3 13 13 13 10 6 16 19 0 3 3 6 13 6 10 10 10 6 6 3 3
3 3 0 0 0 0 0 0 0 0 0 0 0 3 3 0 3 10 6 6 3 3 6 6 6 6 6 3 6 3 3 3 3 6 6 3 3 0 0 10 16 10 13 13 6 13 3 3 0
0 0 0 0 0 0 0 0 0 0 0 0 0 3 3 0 0 0 6 3 6 6 6 6 10 6 6 6 6 6 3 3 3 6 3 3 6 3 3 3 6 3 6 0 3 6 0 0 0
0 0 0 0 0 0 0 0 0 0 0 0 0 3 3 3 0 6 0 3 6 6 6 6 6 6 6 6 6 6 6 3 3 3 3 3 6 6 6 6 6 3 0 0 6 3 0 0 0
3 0 0 0 0 0 0 0 0 0 0 0 0 3 3 0 0 0 6 3 6 6 6 6 6 6 6 3 6 6 6 3 6 6 6 3 3 0 0 6 0 3 3 0 0 0 0 0 0
0 0 0 0 0 0 0 0 0 0 0 0 0 3 3 3 3 0 0 3 10 6 6 6 6 6 6 3 3 3 6 6 6 6 3 3 3 3 3 3 3 0 0 0 0 0 0 3 3
0 0 0 0 0 0 0 0 0 0 0 0 0 0 3 3 3 3 3 3 6 6 6 6 6 6 6 3 3 3 6 6 6 3 0 0 0 3 3 3 0 0 0 0 0 3 0 0 0
0 0 0 0 0 0 0 0 0 0 0 0 3 0 3 3 3 3 3 3 3 6 3 3 3 3 3 3 3 3 3 6 10 6 0 0 0 0 3 0 0 0 3 3 3 3 0 0 0
0 0 0 0 0 0 0 0 0 0 0 0 3 0 0 3 3 3 3 3 3 6 3 3 3 3 3 3 3 3 3 6 6 6 3 0 0 0 0 0 0 0 3 3 3 0 0 0 0
0 0 0 0 0 0 0 0 0 0 0 0 0 3 0 3 3 3 3 3 3 6 6 3 3 3 3 3 3 10 10 6 6 10 3 3 0 0 0 0 0 3 3 3 0 0 0 0 0
0 0 0 0 0 0 0 0 0 0 0 0 0 0 3 3 3 3 0 0 6 10 3 3 3 3 3 3 3 6 6 6 6 10 3 3 3 0 6 0 0 3 3 3 0 0 0 0 0
0 0 0 0 0 0 0 0 0 0 0 0 0 0 0 3 3 0 0 3 3 6 6 3 3 3 3 6 6 6 10 10 6 6 6 3 3 3 3 0 0 0 3 0 0 0 0 0 0
0 0 0 0 0 0 0 0 0 0 0 0 0 0 0 0 0 0 0 6 6 6 6 3 6 6 6 6 6 6 10 10 10 6 6 3 3 3 3 0 3 0 0 0 0 3 0 0 0
0 0 0 0 0 0 0 0 0 0 0 0 0 0 0 3 6 3 3 13 13 13 13 10 6 6 6 10 10 6 6 6 6 6 6 6 3 3 3 0 3 0 0 0 0 0 0 0 0
0 0 0 0 0 0 0 0 0 0 0 0 0 0 0 0 0 3 3 13 16 16 16 16 16 10 13 10 13 10 6 6 6 10 10 10 10 3 3 3 3 3 0 0 0 0 0 0 0
0 0 0 0 0 0 0 0 0 0 0 0 0 0 0 0 0 3 3 6 6 6 6 6 6 6 13 13 10 10 10 10 6 10 10 10 10 10 3 3 6 3 3 0 0 0 0 0 0
0 0 0 0 0 0 0 0 0 0 0 0 0 0 0 0 3 3 6 10 10 6 10 6 3 3 3 6 6 6 6 6 6 6 6 6 6 6 10 3 6 3 3 3 0 0 0 0 0
0 0 0 0 0 0 0 0 0 0 0 3 3 3 0 0 3 6 6 6 6 6 10 6 3 3 3 3 3 6 6 6 6 6 3 3 3 3 3 6 6 3 3 0 3 0 0 0 0
0 0 0 0 0 0 0 0 0 0 0 3 3 6 3 0 6 6 6 6 6 6 10 6 6 6 3 3 3 3 0 6 3 3 6 6 3 3 3 3 3 3 3 0 0 3 0 0 0
0 0 0 0 0 0 0 0 0 0 0 0 6 6 3 3 6 6 10 10 6 3 6 6 6 6 6 6 3 0 0 0 0 3 3 3 3 3 3 3 3 3 3 3 3 3 3 0 0
0 0 0 0 0 0 0 0 0 0 0 0 3 3 3 3 3 6 6 10 6 3 6 6 6 6 6 6 6 0 0 0 0 0 0 3 0 3 3 3 3 3 3 3 0 3 3 3 3
0 0 0 0 0 0 0 0 0 0 0 0 3 3 6 3 3 3 3 3 6 6 3 3 6 6 6 6 6 3 3 3 0 0 0 0 0 0 0 0 0 3 3 3 0 3 0 3 3

GEFSSGP_con_cape1000_264.txt.gz
Probability
65 52 32 13 0 0 0 0 0 0 0 0 0 0 0 0 0 0 0 3 10 16 23 35 48 45 39 29 26 23 23 23 19 16 29 35 39 29 29 39 39 35 35 39 42 45 35 39 52
48 42 19 0 0 0 0 0 0 0 0 0 0 0 0 0 0 0 0 10 10 16 19 23 39 32 32 35 29 19 16 16 16 19 19 23 29 29 26 39 45 39 32 32 45 42 39 39 39
42 42 10 0 0 0 0 0 0 0 0 0 0 0 0 0 0 0 6 13 10 13 19 26 35 29 32 29 29 16 19 19 19 16 19 23 23 16 26 29 39 35 35 29 32 39 35 32 26
26 10 0 0 0 0 0 0 0 0 0 0 0 0 0 0 0 0 6 10 10 13 16 23 32 29 29 29 23 23 19 26 19 19 16 19 19 19 23 29 29 29 32 29 32 35 32 26 23
19 0 0 0 0 0 0 0 0 0 0 0 0 0 0 0 0 3 6 6 6 10 16 16 29 35 29 23 23 23 23 26 26 19 26 26 23 26 26 29 26 29 35 26 16 26 19 13 13
0 0 0 0 0 0 0 0 0 0 0 0 0 0 0 0 0 3 6 6 6 10 6 16 35 29 32 23 19 23 26 26 23 19 23 16 16 16 19 23 23 23 29 16 19 16 16 6 6
0 0 0 0 0 0 0 0 0 0 0 0 0 0 0 0 0 0 6 6 3 6 10 13 16 23 39 35 29 26 29 23 19 16 16 19 19 19 13 13 10 13 19 10 10 10 6 6 10
3 0 0 0 0 0 0 0 0 0 0 0 0 0 0 0 0 0 3 3 3 6 10 10 10 10 6 13 32 29 29 23 19 19 16 13 16 13 13 10 6 3 6 0 6 6 10 6 3
0 0 0 0 0 0 0 0 0 0 0 0 0 0 0 0 0 0 3 3 3 3 10 10 6 3 3 3 13 19 19 16 16 19 19 13 3 3 3 6 6 10 10 6 10 13 13 6 3
0 0 0 0 0 0 0 0 0 0 0 3 3 0 0 0 0 0 3 3 3 3 3 3 3 3 3 3 3 3 3 3 3 3 0 0 0 0 3 10 23 19 16 16 10 6 6 0 0
0 0 0 0 0 0 0 0 0 0 0 3 3 0 3 3 0 0 0 3 3 3 3 3 3 3 3 3 3 0 3 3 3 0 0 0 0 0 3 3 3 0 3 0 0 0 0 0 0
0 0 0 0 0 0 0 0 0 0 0 3 3 3 0 0 0 0 0 0 3 3 3 6 6 3 3 3 3 0 0 0 0 0 0 0 0 0 0 0 0 0 0 0 0 0 0 0 0
0 0 0 0 0 0 0 0 0 0 0 3 3 0 0 0 0 0 0 0 0 3 6 6 3 3 3 3 3 0 0 0 0 0 0 0 0 0 0 0 0 0 0 0 0 0 0 0 0
0 0 0 0 0 0 0 0 0 0 0 0 0 0 0 3 0 0 0 0 0 3 6 6 3 3 3 3 0 0 0 0 0 0 0 0 0 0 0 0 0 0 0 0 0 0 0 0 0
0 0 0 0 0 0 0 0 0 0 0 0 0 0 0 3 0 0 0 6 3 0 6 6 3 3 3 3 0 0 0 0 0 0 0 0 0 0 0 0 0 0 0 0 0 0 0 0 0
0 0 0 0 0 0 0 0 0 0 0 0 0 0 0 3 0 0 0 3 6 3 6 6 6 3 3 3 3 3 0 0 0 0 0 0 0 0 0 0 0 0 0 0 0 0 0 0 0
0 0 0 0 0 0 0 0 0 0 0 0 0 0 0 0 0 0 0 6 6 6 6 6 6 3 3 3 3 3 0 0 0 0 0 0 0 0 0 0 0 0 0 0 0 0 0 0 0
0 0 0 0 0 0 0 0 0 0 0 0 0 0 0 0 0 0 0 0 3 6 3 3 3 3 3 3 3 3 0 0 0 0 0 0 0 0 0 0 0 0 0 0 0 0 0 0 0
0 0 0 0 0 0 0 0 0 0 0 0 0 0 0 0 3 0 0 0 0 3 3 3 3 3 3 3 3 3 3 0 0 0 0 0 0 0 0 0 0 0 0 0 0 0 0 0 0
0 0 0 0 0 0 0 0 0 0 0 0 0 0 0 0 0 0 0 0 0 3 3 3 3 3 3 3 3 3 3 0 0 0 0 0 0 0 0 0 0 0 0 0 0 0 0 0 0
0 0 0 0 0 0 0 0 0 0 0 0 0 0 0 0 0 0 0 0 0 3 3 3 3 3 3 3 3 3 0 0 0 0 0 0 0 0 0 0 0 0 0 0 0 0 0 0 0
0 0 0 0 0 0 0 0 0 0 0 0 0 0 0 0 0 0 0 0 0 3 3 3 3 3 3 3 3 3 3 3 0 0 0 0 0 0 0 0 0 0 0 0 0 0 0 0 0
0 0 0 0 0 0 0 0 0 0 0 0 0 0 0 0 0 0 0 3 3 3 3 3 3 3 3 3 3 3 3 0 0 0 0 0 0 0 0 0 0 0 0 0 0 0 0 0 0
0 0 0 0 0 0 0 0 0 0 0 0 0 0 0 0 3 3 3 3 3 3 3 3 3 3 3 3 3 3 3 0 0 0 0 0 0 0 0 0 0 0 0 0 0 0 0 0 0
0 0 0 0 0 0 0 0 0 0 0 0 0 0 3 3 3 3 3 3 3 3 3 3 3 3 3 3 3 3 3 3 0 0 0 0 0 0 0 0 0 0 0 0 0 0 0 0 0
0 0 0 0 0 0 0 0 0 0 0 0 0 0 3 3 0 3 3 3 3 3 3 3 3 3 3 3 3 3 3 3 0 0 0 0 0 0 0 0 0 0 0 0 0 0 0 0 0
0 0 0 0 0 0 0 0 0 0 0 0 0 0 3 3 3 3 3 3 3 3 3 3 3 3 3 3 3 3 3 3 0 0 0 0 0 0 0 0 0 0 0 0 0 0 0 0 0
0 0 0 0 0 0 0 0 0 0 0 0 0 0 0 3 3 3 3 3 3 3 3 3 3 3 3 3 3 3 3 3 3 0 0 0 0 0 0 0 0 0 0 0 0 0 0 0 0
0 0 0 0 0 0 0 0 0 0 0 0 0 0 0 3 3 3 3 3 3 3 3 3 3 3 3 3 3 3 3 0 0 0 0 0 0 0 0 0 0 0 0 0 0 0 0 0 0
0 0 0 0 0 0 0 0 0 0 0 0 0 0 0 0 0 0 3 3 3 3 3 3 3 3 3 3 3 0 0 0 0 0 0 0 0 0 0 0 0 0 0 0 0 0 0 0 0

GEFSSGP_con_cape1000_270.txt.gz
Probability
58 35 6 0 0 0 0 0 0 0 0 0 0 0 0 0 0 0 0 0 0 0 13 23 39 35 29 23 26 19 19 26 26 32 29 32 32 29 32 32 32 35 35 39 42 35 45 48 48
32 29 6 0 0 0 0 0 0 0 0 0 0 0 0 0 0 0 0 0 0 6 13 19 35 39 32 26 26 23 13 23 19 19 29 19 26 29 29 32 35 39 39 32 35 35 39 42 45
32 13 3 0 0 0 0 0 0 0 0 0 0 0 0 0 0 0 0 3 3 13 13 23 29 29 29 29 26 23 23 19 26 16 19 26 23 19 26 32 29 26 35 23 23 29 32 29 32
10 0 0 0 0 0 0 0 0 0 0 0 0 0 0 0 0 0 6 3 3 13 13 16 26 19 26 26 26 23 19 16 16 16 16 19 19 23 19 23 23 19 26 32 32 29 35 35 23
3 0 0 0 0 0 0 0 0 0 0 0 0 0 0 0 0 3 6 6 6 10 13 16 23 23 26 19 29 23 26 26 26 19 19 19 23 19 19 13 16 19 19 19 26 29 29 32 26
0 0 0 0 0 0 0 0 0 0 0 0 0 0 0 0 3 6 6 6 6 10 13 16 23 23 29 23 23 19 23 26 32 26 26 19 16 16 13 19 19 19 23 16 10 10 13 6 16
0 0 0 0 0 0 0 0 0 0 0 0 0 0 0 0 3 6 6 3 6 3 10 10 13 16 26 26 29 26 23 23 23 23 26 13 10 10 16 10 13 19 16 16 13 13 19 13 13
0 0 0 0 0 0 0 0 0 0 0 0 0 0 0 0 0 0 0 0 0 3 10 6 6 10 6 6 23 26 26 26 19 23 16 16 10 10 19 10 13 16 16 16 26 16 23 19 13
0 0 0 0 0 0 0 0 0 0 0 0 0 0 0 0 0 0 0 0 0 0 3 6 3 3 0 3 10 10 16 13 10 10 13 3 3 3 3 13 10 6 19 19 16 16 16 19 6
0 0 0 0 0 0 0 0 0 0 0 0 0 0 0 0 3 0 0 0 0 0 3 3 3 3 3 3 3 3 3 3 3 3 3 0 0 0 0 3 16 10 10 13 13 6 3 0 0
0 0 0 0 0 0 0 0 0 0 0 0 0 0 0 0 3 3 3 0 0 0 0 3 3 3 3 0 0 0 3 0 0 0 0 0 0 0 0 0 0 0 0 0 0 0 0 0 0
0 0 0 0 0 0 0 0 0 0 0 0 0 0 0 0 3 3 3 3 3 0 0 3 3 3 3 3 0 0 3 0 0 0 0 0 0 0 0 0 0 0 0 0 0 0 0 0 0
0 0 0 0 0 0 0 0 0 0 0 0 0 0 0 0 0 0 3 3 3 3 0 3 3 3 3 3 0 0 3 0 0 0 0 0 0 0 0 0 0 0 0 0 0 0 0 0 0
0 0 0 0 0 0 0 0 0 0 0 0 0 0 3 3 0 0 3 3 3 3 3 3 6 3 3 3 0 0 3 0 0 0 0 0 0 0 0 0 0 0 0 0 0 0 0 0 0
0 0 0 0 0 0 0 0 0 0 0 0 0 0 3 0 0 0 0 3 3 3 3 3 6 3 3 3 0 0 0 0 0 0 0 0 0 0 0 0 0 0 0 0 0 0 0 0 0
0 0 0 0 0 0 0 0 0 0 0 0 0 0 0 0 0 0 0 0 0 3 3 6 6 3 3 3 0 0 0 0 0 0 0 0 0 0 0 0 0 0 0 0 0 0 0 0 0
0 0 0 0 0 0 0 0 0 0 0 0 0 0 0 0 0 0 0 0 0 3 6 6 3 3 3 3 0 0 0 0 0 0 0 0 0 0 0 0 0 0 0 0 0 0 0 0 0
0 0 0 0 0 0 0 0 0 0 0 0 0 0 0 0 0 0 0 0 3 0 3 6 3 3 3 3 3 0 0 0 0 0 0 0 0 0 0 0 0 0 0 0 0 0 0 0 0
0 0 0 0 0 0 0 0 0 0 0 0 0 0 0 0 0 0 0 3 3 0 0 0 3 3 3 3 3 3 0 0 0 0 0 0 0 0 0 0 0 0 0 0 0 0 0 0 0
0 0 0 0 0 0 0 0 0 0 0 0 0 0 0 0 0 0 0 3 3 0 0 0 3 3 3 3 3 3 3 0 0 0 0 0 0 0 0 0 0 0 0 0 0 0 0 0 0
0 0 0 0 0 0 0 0 0 0 0 0 0 0 0 0 0 0 0 3 0 0 0 0 3 3 3 3 3 0 0 0 0 0 0 0 0 0 0 0 0 0 0 0 0 0 0 0 0
0 0 0 0 0 0 0 0 0 0 0 0 0 0 0 0 0 0 0 0 0 0 0 0 0 3 3 3 3 3 3 3 0 0 0 0 0 0 0 0 0 0 0 0 0 0 0 0 0
0 0 0 0 0 0 0 0 0 0 0 0 0 0 0 0 0 0 0 0 0 0 0 0 0 3 3 3 3 3 3 3 0 0 0 0 0 0 0 0 0 0 0 0 0 0 0 0 0
0 0 0 0 0 0 0 0 0 0 0 0 0 0 0 0 0 0 0 0 0 0 0 0 3 3 3 3 3 3 3 3 0 0 0 0 0 0 0 0 0 0 0 0 0 0 0 0 0
0 0 0 0 0 0 0 0 0 0 0 0 0 0 0 0 0 0 0 0 3 3 3 0 3 3 3 3 3 3 3 3 3 3 0 0 0 0 0 0 0 0 0 0 0 0 0 0 0
0 0 0 0 0 0 0 0 0 0 0 0 0 0 0 0 0 0 0 0 0 0 3 3 3 3 3 3 3 3 3 3 3 3 3 0 0 0 0 0 0 0 0 0 0 0 0 0 0
0 0 0 0 0 0 0 0 0 0 0 0 0 0 0 0 0 0 0 0 0 0 0 3 3 3 3 3 3 3 3 3 3 0 0 0 0 0 0 0 0 0 0 0 0 0 0 0 0
0 0 0 0 0 0 0 0 0 0 0 0 0 0 0 0 0 0 0 0 0 0 0 3 3 3 3 3 3 3 3 3 3 0 0 0 0 0 0 0 0 0 0 0 0 0 0 0 0
0 0 0 0 0 0 0 0 0 0 0 0 0 0 0 0 0 0 0 0 0 0 0 3 3 3 3 3 3 3 3 3 3 3 0 0 0 0 0 0 0 0 0 0 0 0 0 0 0
0 0 0 0 0 0 0 0 0 0 0 0 0 0 0 0 0 0 0 0 0 0 0 3 3 3 3 3 3 3 3 3 3 3 0 0 0 0 0 0 0 0 0 0 0 0 0 0 0

GEFSSGP_con_cape1000_276.txt.gz
Probability
61 48 32 29 3 0 0 0 0 0 0 0 0 0 0 0 0 3 6 3 0 3 10 13 23 26 26 26 23 23 23 23 23 32 32 29 26 26 23 19 23 26 35 35 48 42 42 42 45
48 39 26 3 0 0 0 0 0 0 0 0 0 0 0 0 0 0 0 0 0 3 10 10 26 29 29 29 32 23 16 19 23 23 23 19 26 29 26 19 23 19 26 29 39 35 42 32 32
42 26 13 0 0 0 0 0 0 0 0 0 0 0 3 3 0 3 0 0 0 6 10 3 23 29 26 29 29 29 23 23 23 19 13 16 19 19 26 23 16 19 26 16 29 32 32 26 29
35 13 10 0 0 0 0 0 0 0 0 0 0 3 3 0 3 0 6 3 0 6 10 6 29 29 29 29 32 35 23 19 19 23 16 19 16 19 13 16 16 16 16 19 23 29 26 16 16
19 10 3 0 0 0 0 0 0 0 0 0 0 0 3 3 3 3 3 3 0 6 6 3 23 23 19 26 23 26 23 23 29 26 23 19 16 16 16 19 13 13 13 13 16 23 23 19 26
13 3 0 0 0 0 0 0 0 0 0 0 0 0 0 3 3 3 3 6 3 0 3 6 16 19 23 19 23 29 23 29 35 19 23 26 23 19 19 19 13 10 10 19 16 13 16 10 13
3 0 0 0 0 0 0 0 0 0 0 0 0 0 0 6 3 6 6 6 6 0 0 3 10 6 13 19 35 32 39 35 29 23 26 26 23 19 13 13 16 13 10 16 19 10 6 6 10
13 0 0 0 0 0 0 0 0 0 0 0 0 0 0 6 3 6 6 6 6 3 3 3 10 6 6 13 23 29 19 19 16 13 6 13 13 13 10 10 10 10 10 13 6 6 13 19 16
0 0 0 0 0 0 0 0 0 0 0 0 0 0 3 6 6 6 6 6 6 6 3 6 10 6 3 3 10 13 16 13 10 10 10 6 10 3 3 6 6 10 10 13 13 16 13 10 3
0 0 0 0 0 0 0 0 0 0 0 0 0 0 10 6 6 6 6 6 3 3 3 3 6 6 3 0 6 6 3 3 3 3 0 6 6 3 3 3 13 10 13 10 6 6 6 6 6
0 0 0 0 0 0 0 0 0 0 0 0 0 0 6 3 3 3 3 3 6 6 6 10 10 10 6 10 6 6 3 3 3 3 0 3 6 6 6 10 16 16 6 6 6 6 6 6 6
0 0 0 0 0 0 0 0 0 0 0 0 0 3 3 0 0 0 3 3 6 6 6 6 10 10 10 10 10 3 6 3 3 3 3 6 6 10 10 13 13 16 13 6 6 6 6 6 3
0 0 0 0 0 0 0 0 0 3 0 0 0 3 3 3 3 3 0 3 3 3 10 6 6 10 6 10 10 3 6 3 6 6 6 3 10 10 6 10 10 3 3 6 6 6 3 0 0
0 0 0 0 0 0 0 0 3 3 3 0 3 6 3 6 3 3 3 3 3 3 3 10 6 6 6 6 3 3 6 3 3 3 3 3 3 3 6 3 3 3 3 3 3 3 3 0 0
0 0 0 0 0 0 0 0 3 0 3 3 3 3 3 6 6 3 3 3 6 6 6 6 6 6 10 3 3 3 3 3 3 3 3 3 3 6 6 3 3 3 3 0 3 3 3 0 0
0 0 0 0 0 0 0 0 3 0 0 0 0 3 3 6 6 6 3 3 6 10 10 6 6 6 6 3 3 3 3 6 6 6 6 6 3 6 6 0 3 0 0 6 3 3 0 0 0
0 0 0 0 0 0 0 0 3 0 0 0 0 3 3 3 6 6 3 3 10 10 10 6 6 6 6 3 3 10 6 6 6 6 6 6 6 3 6 3 6 0 0 6 3 6 6 6 6
0 0 0 0 0 0 0 0 0 0 0 0 0 3 3 3 3 6 6 10 10 6 6 6 6 6 6 10 6 13 6 6 10 10 6 6 6 3 3 3 3 0 6 6 6 6 6 6 3
0 0 0 0 0 0 0 0 0 0 0 0 0 0 3 3 0 0 3 6 6 6 6 6 6 10 10 6 6 10 13 13 10 6 6 6 6 3 3 6 6 10 6 6 3 6 6 6 3
0 0 0 0 0 0 0 0 0 3 0 0 0 0 3 3 3 0 3 6 6 6 3 3 6 10 6 10 6 6 10 6 3 3 6 6 6 6 6 6 6 10 10 3 3 6 6 6 3
0 0 0 0 0 0 0 0 0 3 3 3 0 0 3 3 3 3 3 10 10 10 6 3 6 10 6 6 6 6 6 6 6 3 3 3 3 3 6 6 10 6 3 3 3 3 6 6 6
0 0 0 0 0 0 0 0 0 0 3 3 3 0 3 3 0 0 6 6 10 10 10 10 10 3 6 6 6 6 6 6 3 3 3 3 3 3 3 6 10 10 3 0 0 0 6 10 6
0 0 0 0 0 0 0 0 0 0 0 3 3 3 3 3 0 0 3 6 10 10 10 10 6 6 10 13 13 16 10 10 6 3 3 3 3 3 3 3 6 6 6 3 0 0 3 10 10
0 0 0 0 0 0 0 0 0 0 0 0 3 3 3 3 0 0 3 3 6 6 6 10 10 10 16 16 10 10 10 10 10 3 3 3 3 3 3 3 3 0 3 6 0 0 3 3 6
0 0 0 0 0 0 0 0 0 0 0 0 0 3 3 3 0 0 0 0 3 3 6 6 6 13 13 10 10 10 10 10 3 3 3 3 3 3 3 3 3 3 0 0 3 0 0 3 3
0 0 0 0 0 0 0 0 0 0 0 0 0 3 3 0 0 0 0 0 3 3 6 6 10 6 6 10 10 10 10 10 6 6 6 3 3 3 3 3 0 0 0 0 0 3 0 0 3
0 0 0 0 0 0 0 0 0 0 0 0 3 3 3 0 0 0 0 0 0 3 6 10 10 3 3 6 10 10 10 10 6 6 6 6 6 6 0 0 0 0 0 0 0 6 3 3 0
0 0 0 0 0 0 0 0 0 0 0 3 0 3 3 0 0 0 0 0 3 3 10 10 6 6 3 6 6 6 6 10 6 3 3 3 3 3 3 0 0 0 0 0 0 3 6 3 3
0 0 0 0 0 0 0 0 0 0 0 0 3 3 3 0 0 0 0 0 0 0 3 3 0 6 3 6 6 6 6 6 3 3 3 3 3 3 3 0 0 0 0 0 0 3 3 3 3
0 0 0 0 0 0 0 0 0 0 0 0 3 3 0 0 0 0 0 0 0 0 0 0 0 0 3 6 6 6 6 6 6 3 3 3 3 3 3 3 0 3 3 0 0 0 3 0 0

GEFSSGP_con_cape1000_282.txt.gz
Probability
81 74 68 84 68 29 0 0 3 0 0 0 0 0 3 3 0 3 3 6 16 13 13 19 39 32 29 32 32 26 23 26 32 29 23 26 26 26 26 23 19 19 16 29 32 35 35 35 29
71 68 55 61 39 3 0 0 0 0 0 0 0 0 3 3 3 0 3 6 6 10 10 13 29 26 29 26 32 32 26 23 19 19 23 19 26 16 23 23 23 13 23 23 26 29 29 29 23
61 48 52 58 6 0 0 0 3 0 0 0 0 0 3 3 3 0 0 3 6 10 6 16 23 16 26 26 29 32 35 29 23 23 23 29 16 13 16 19 23 23 26 26 26 32 26 26 26
58 58 39 16 0 0 0 0 0 0 0 0 0 0 3 0 0 3 3 6 3 10 6 13 26 23 26 29 39 35 32 32 29 26 23 23 19 16 16 19 19 19 23 26 26 26 26 16 23
52 58 26 3 0 0 0 0 0 0 0 0 0 0 6 0 0 3 3 3 3 6 6 10 23 29 29 26 32 35 35 29 23 26 26 23 19 23 16 23 19 13 16 13 16 16 16 13 10
58 45 3 0 0 0 0 0 0 0 0 0 0 0 3 3 3 3 3 3 3 6 6 3 29 29 29 29 32 26 19 19 16 23 26 29 26 26 16 16 13 16 16 13 10 16 16 10 13
39 26 0 0 0 0 0 0 0 0 0 0 0 0 3 3 3 3 3 3 6 10 6 6 10 13 29 29 32 32 19 10 10 10 10 19 16 13 13 13 13 10 10 13 13 10 10 10 10
32 23 0 0 0 0 0 0 0 0 0 0 0 0 0 3 3 3 3 3 3 6 10 10 6 6 6 23 26 19 16 16 10 13 10 16 16 10 13 13 16 13 13 13 13 10 13 10 6
10 3 0 0 0 0 0 0 0 0 0 0 3 6 3 3 3 3 3 3 3 6 10 10 6 10 6 3 13 16 13 16 16 13 16 19 6 6 6 6 19 19 19 19 19 16 13 13 6
6 3 0 0 0 0 0 0 0 0 0 0 3 6 3 3 3 3 3 3 3 3 6 10 6 6 6 3 6 10 10 10 10 3 6 3 6 3 3 10 16 19 23 19 16 16 16 6 6
0 0 0 0 0 0 0 0 0 0 0 0 3 0 3 3 3 0 6 6 6 6 6 10 10 10 10 10 6 6 6 6 6 3 6 3 3 0 6 6 10 10 10 6 6 6 3 3 6
0 0 0 0 0 0 0 0 0 0 0 0 0 0 0 3 0 0 0 6 6 6 6 6 10 10 10 6 6 6 6 6 6 6 6 6 3 0 3 6 6 6 6 6 6 6 6 6 3
0 0 0 0 0 0 0 0 0 0 0 0 0 0 3 3 3 0 0 0 6 6 6 3 6 6 10 6 6 6 6 6 6 10 6 6 6 0 0 3 6 6 6 3 0 3 3 3 0
0 0 0 0 0 0 0 0 0 0 0 0 3 3 3 3 3 0 0 0 0 3 6 6 6 6 3 3 3 6 3 10 6 10 3 3 3 3 3 6 3 6 3 3 3 3 0 0 0
0 0 0 0 0 0 0 0 0 0 0 0 0 0 3 3 3 3 3 3 3 3 3 3 6 6 3 3 3 3 3 3 6 6 6 6 6 6 3 3 3 0 3 3 3 3 0 0 0
0 0 0 0 0 0 0 0 0 0 0 0 0 0 3 3 3 3 3 3 3 3 3 3 3 3 3 3 3 3 3 6 6 6 6 6 6 6 6 3 3 0 0 3 3 0 0 0 0
0 0 0 0 0 0 0 0 0 0 0 0 3 3 3 3 3 3 3 0 0 0 3 3 3 3 3 6 3 3 3 6 6 6 6 6 6 6 6 3 3 0 3 3 3 3 0 3 0
0 0 0 0 0 0 0 0 0 0 0 0 3 3 3 3 0 0 6 6 3 3 6 6 6 10 6 6 3 6 6 3 6 3 3 6 6 6 6 6 3 6 6 6 3 3 3 3 3
0 0 0 0 0 0 0 0 0 0 0 0 0 3 3 0 0 0 3 6 3 3 3 6 6 6 3 10 3 6 3 3 6 3 3 3 3 3 6 6 6 6 6 6 3 3 3 3 3
0 0 0 0 0 0 0 0 0 0 0 0 0 0 0 0 0 0 0 0 0 3 6 6 6 3 6 3 3 3 3 3 3 3 3 3 3 3 3 3 6 6 10 10 3 3 3 3 3
0 0 0 0 0 0 0 0 0 0 0 0 0 0 0 0 0 0 0 0 0 0 0 3 0 3 3 6 6 6 6 6 3 3 3 3 3 3 3 3 3 3 10 10 3 3 3 3 3
0 0 0 0 0 0 0 0 0 0 0 3 0 0 3 0 0 0 0 0 0 0 0 0 3 3 6 6 6 6 6 6 3 3 3 3 3 3 3 3 3 3 3 6 0 3 3 3 3
0 0 0 0 0 0 0 0 0 0 0 0 3 3 3 3 0 0 3 3 3 3 0 0 0 0 6 10 10 10 10 6 6 6 6 3 3 3 3 3 3 3 3 3 0 0 0 0 0
0 0 0 0 0 0 0 0 0 0 0 3 3 3 3 3 0 0 3 3 0 3 3 3 0 6 6 6 10 6 6 6 6 6 3 3 3 6 3 3 3 3 3 3 0 3 0 0 0
0 0 0 0 0 0 0 0 0 0 0 0 3 3 3 3 0 0 0 3 3 3 0 3 0 6 10 6 6 3 6 3 3 6 3 3 3 6 3 3 3 3 3 0 0 3 3 0 0
0 0 0 0 0 0 0 0 0 0 0 0 3 3 3 3 0 0 0 0 3 3 3 3 3 3 3 6 6 3 3 3 3 6 6 6 6 6 6 3 3 3 0 0 0 3 3 0 0
0 0 0 0 0 0 0 0 0 0 0 0 0 3 3 3 0 0 0 0 3 3 6 6 6 3 3 6 6 3 3 3 3 3 3 3 3 3 3 3 3 3 0 3 0 0 0 3 3
0 0 0 0 0 0 0 0 0 0 3 0 0 3 3 3 0 0 0 0 0 3 13 6 6 6 3 6 3 3 3 3 3 3 3 3 3 3 3 3 3 3 0 0 0 0 0 0 0
0 0 0 0 0 0 0 0 0 0 0 0 0 3 3 3 0 0 0 0 0 3 3 3 6 0 0 10 3 3 3 3 3 3 3 3 3 3 3 3 3 3 0 0 0 0 0 0 0
0 0 0 0 0 0 0 0 0 0 0 0 0 3 3 3 0 0 3 0 0 0 0 6 0 0 0 3 3 0 3 3 3 3 3 3 3 3 3 3 3 3 0 0 0 0 0 0 0

GEFSSGP_con_cape1000_288.txt.gz
Probability
71 61 32 3 0 0 0 0 0 0 0 3 0 0 0 0 0 0 0 3 6 6 16 26 39 42 35 42 35 39 39 32 39 45 48 45 45 42 32 29 32 23 29 35 32 39 35 29 26
58 52 13 0 0 0 0 0 0 0 0 3 3 0 0 0 0 0 0 6 6 6 10 19 35 35 39 32 39 32 35 35 29 35 35 39 35 29 35 32 26 26 32 35 35 39 35 32 32
55 42 3 0 0 0 0 0 0 0 0 3 0 0 0 0 0 0 3 6 6 6 13 23 39 32 39 39 32 32 32 35 35 26 29 32 29 29 29 32 32 32 35 35 32 32 32 29 29
16 3 0 0 0 0 0 0 0 0 0 0 0 0 0 0 0 0 6 6 3 10 10 26 45 42 39 32 35 39 35 29 26 26 29 23 19 26 29 26 29 26 32 32 26 32 35 29 29
6 0 0 0 0 0 0 0 0 0 0 0 0 0 0 0 0 3 3 3 3 0 3 16 48 45 39 32 29 39 26 26 26 26 23 23 23 26 26 23 23 26 23 19 23 19 23 23 29
0 0 0 0 0 0 0 0 0 0 0 0 0 0 0 0 0 0 6 3 0 0 6 16 39 48 42 39 29 26 19 19 26 23 23 23 23 16 16 23 13 16 16 16 13 19 16 19 19
0 0 0 0 0 0 0 0 0 0 0 0 0 0 0 0 0 0 3 6 0 0 0 3 19 23 39 32 29 23 19 16 19 16 16 16 16 10 13 13 16 16 19 19 10 16 13 13 13
0 0 0 0 0 0 0 0 0 0 0 0 0 0 0 0 0 0 0 3 0 0 0 0 3 3 6 16 26 26 23 19 23 13 13 23 16 16 13 13 10 10 13 13 10 13 13 10 10
0 0 0 0 0 0 0 0 0 0 0 0 0 0 0 0 0 0 0 0 0 0 3 0 0 0 0 6 13 16 23 23 19 13 19 10 6 6 3 10 16 16 19 16 13 10 10 13 13
0 0 0 0 0 0 0 0 0 0 0 0 0 0 0 0 0 0 0 0 0 3 0 0 0 0 0 3 3 3 6 3 3 0 0 3 0 0 0 6 16 19 19 13 19 16 10 0 0
0 0 0 0 0 0 0 0 0 0 0 0 0 0 0 0 0 0 0 0 0 0 0 0 0 0 0 0 0 0 0 0 0 0 0 0 0 0 0 0 3 6 6 3 3 0 0 0 0
0 0 0 0 0 0 0 0 0 0 0 0 0 0 0 0 0 0 0 0 0 3 0 0 0 0 0 0 0 0 0 0 0 0 0 0 0 0 0 0 0 0 0 0 0 0 0 0 0
0 0 0 0 0 0 0 0 0 0 0 0 0 0 0 0 0 0 0 0 0 3 3 3 3 0 0 0 0 0 0 0 0 0 0 0 0 0 0 0 0 0 0 0 0 0 0 0 0
0 0 0 0 0 0 0 0 0 0 0 0 0 0 0 0 0 0 0 0 0 3 3 3 3 0 0 0 0 0 0 0 0 0 0 0 0 0 0 0 0 0 0 0 0 0 0 0 0
0 0 0 0 0 0 0 0 0 0 0 0 0 0 0 0 0 0 0 0 0 0 3 3 0 0 0 0 0 0 0 0 0 0 0 0 0 0 0 0 0 0 0 0 0 0 0 0 0
0 0 0 0 0 0 0 0 0 0 0 0 0 0 0 0 0 0 0 0 0 0 0 0 0 0 0 0 0 0 0 0 0 0 0 0 0 0 0 0 0 0 0 0 0 0 0 0 0
0 0 0 0 0 0 0 0 0 0 0 0 0 0 0 0 0 0 0 0 0 0 0 0 0 0 0 0 0 0 0 0 0 0 0 0 0 0 0 0 0 0 0 0 0 0 0 0 0
0 0 0 0 0 0 0 0 0 0 0 0 0 0 0 0 0 0 0 0 0 0 0 0 0 0 0 0 0 0 0 0 0 0 0 0 0 0 0 0 0 0 0 0 0 0 0 0 0
0 0 0 0 0 0 0 0 0 0 0 0 0 0 0 0 0 0 0 0 0 0 0 0 0 3 3 3 0 0 0 0 0 0 0 0 0 0 0 0 0 0 0 0 0 0 0 0 0
0 0 0 0 0 0 0 0 0 0 0 0 0 0 0 0 0 0 0 0 0 0 0 0 0 3 3 3 3 3 3 3 3 0 0 0 0 0 0 0 0 0 0 0 0 0 0 0 0
0 0 0 0 0 0 0 0 0 0 0 0 0 0 0 0 0 0 0 0 0 0 0 0 0 3 3 3 3 3 3 3 3 3 0 0 0 0 0 0 0 0 0 0 0 0 0 0 0
0 0 0 0 0 0 0 0 0 0 0 0 0 0 0 0 0 0 0 0 0 0 0 0 0 3 3 3 3 3 3 3 3 3 3 0 0 0 0 0 0 0 0 0 0 0 0 0 0
0 0 0 0 0 0 0 0 0 0 0 0 0 0 0 0 0 0 0 0 0 0 0 0 0 0 3 3 3 3 3 3 3 0 0 0 0 0 0 0 0 0 0 0 0 0 0 0 0
0 0 0 0 0 0 0 0 0 0 0 0 0 0 0 0 0 0 0 0 0 0 0 0 0 0 0 3 3 3 3 3 3 0 0 0 0 0 0 0 0 0 0 0 0 0 0 0 0
0 0 0 0 0 0 0 0 0 0 0 0 0 0 0 0 0 0 0 0 0 0 0 0 0 0 3 3 3 3 3 3 3 0 0 0 0 0 0 0 0 0 0 0 0 0 0 0 0
0 0 0 0 0 0 0 0 0 0 0 0 0 0 0 0 0 0 0 0 0 0 0 0 0 0 0 3 3 3 3 0 0 0 0 0 0 0 0 0 0 0 0 0 0 0 0 0 0
0 0 0 0 0 0 0 0 0 0 0 0 0 0 0 0 0 0 0 0 0 0 0 0 0 0 0 0 3 3 0 0 0 0 0 0 0 0 0 0 0 0 0 0 0 0 0 0 0
0 0 0 0 0 0 0 0 0 0 0 0 0 0 0 0 0 0 0 0 0 0 0 0 0 0 0 0 0 3 0 0 0 0 0 0 0 0 0 0 0 0 0 0 0 0 0 0 0
0 0 0 0 0 0 0 0 0 0 0 0 0 0 0 0 0 0 0 0 0 0 0 0 0 0 0 0 0 0 0 3 3 0 0 0 0 0 0 0 0 0 0 0 0 0 0 0 0
0 0 0 0 0 0 0 0 0 0 0 0 0 0 0 0 0 0 0 0 0 0 0 0 0 0 0 0 0 0 0 0 0 0 0 0 0 0 0 0 0 0 0 0 0 0 0 0 0

GEFSSGP_con_cape1000_294.txt.gz
Probability
71 35 3 0 0 0 0 0 0 0 0 0 0 0 0 0 0 0 0 0 0 3 6 13 26 29 26 29 29 35 39 39 32 39 42 48 48 39 42 39 32 35 32 42 39 35 39 32 39
45 16 0 0 0 0 0 0 0 0 0 0 0 0 0 0 0 0 0 0 3 3 3 10 29 35 26 26 23 29 32 29 29 29 32 35 39 32 32 32 35 32 26 32 32 35 35 32 45
35 3 0 0 0 0 0 0 0 0 0 0 0 0 0 0 0 0 0 3 6 3 3 10 26 29 23 23 26 26 26 26 32 26 32 32 29 26 23 32 23 23 19 29 29 35 35 35 39
6 0 0 0 0 0 0 0 0 0 0 0 0 0 0 0 0 0 3 3 6 3 0 10 29 29 26 23 19 19 23 32 32 32 29 23 26 26 26 29 23 32 32 35 32 35 26 29 35
0 0 0 0 0 0 0 0 0 0 0 0 0 0 0 0 0 0 0 0 3 0 3 6 35 32 26 26 26 19 19 29 23 26 26 23 23 29 32 39 35 35 32 32 26 23 26 32 35
0 0 0 0 0 0 0 0 0 0 0 0 0 0 0 0 0 0 0 0 0 0 3 6 26 35 29 29 23 6 16 23 19 19 16 16 16 16 19 16 19 32 29 29 23 26 19 29 32
0 0 0 0 0 0 0 0 0 0 0 0 0 0 0 0 0 0 0 0 0 0 0 3 10 6 19 26 23 23 19 23 23 19 16 10 6 10 6 10 13 19 19 16 19 23 23 23 19
0 0 0 0 0 0 0 0 0 0 0 0 0 0 0 0 0 3 3 0 0 0 0 0 6 3 3 3 16 19 19 23 13 16 16 13 13 13 13 10 10 6 10 16 13 16 10 10 19
0 0 0 0 0 0 0 0 0 0 0 0 0 0 0 0 0 0 0 0 0 0 0 0 0 0 0 3 3 6 13 13 13 10 13 10 3 3 3 3 16 19 16 16 13 10 10 13 13
0 0 0 0 0 0 0 0 0 0 0 0 0 0 0 0 3 0 0 0 0 0 0 0 0 0 0 3 0 0 0 3 0 0 0 0 0 0 3 3 10 13 16 13 13 10 0 0 0
0 0 0 0 0 0 0 0 0 0 0 0 0 0 0 0 3 0 0 0 0 0 0 0 0 0 0 0 0 0 0 0 0 0 0 0 0 0 0 0 0 3 3 3 0 0 0 0 0
0 0 0 0 0 0 0 0 0 0 0 0 0 3 0 0 0 3 0 0 0 0 0 0 0 0 0 0 0 0 0 0 0 0 0 0 0 0 0 0 0 0 0 0 0 0 0 0 0
0 0 0 0 0 0 0 0 0 0 0 0 0 3 3 0 0 0 0 0 0 0 0 0 0 0 0 0 0 0 0 0 0 0 0 0 0 0 0 0 0 0 0 0 0 0 0 0 0
0 0 0 0 0 0 0 0 0 0 0 0 3 3 3 0 0 0 0 0 0 0 0 0 0 0 0 0 0 0 0 0 0 0 0 0 0 0 0 0 0 0 0 0 0 0 0 0 0
0 0 0 0 0 0 0 0 0 0 0 0 0 3 3 0 0 0 0 0 0 0 0 0 0 0 0 0 0 0 0 0 0 0 0 0 0 0 0 0 0 0 0 0 0 0 0 0 0
0 0 0 0 0 0 0 0 0 0 0 0 0 0 0 0 0 0 0 0 0 0 0 0 0 0 0 0 0 0 0 0 0 0 0 0 0 0 0 0 0 0 0 0 0 0 0 0 0
0 0 0 0 0 0 0 0 0 0 0 0 0 0 0 0 0 0 0 0 0 0 0 0 0 0 0 0 0 0 0 0 0 0 0 0 0 0 0 0 0 0 0 0 0 0 0 0 0
0 0 0 0 0 0 0 0 0 0 0 0 0 0 0 0 0 0 0 0 0 0 0 0 0 0 0 0 0 0 0 0 0 0 0 0 0 0 0 0 0 0 0 0 0 0 0 0 0
0 0 0 0 0 0 0 0 0 0 0 0 0 0 0 0 0 0 0 0 0 0 0 0 0 0 0 0 0 0 0 0 0 0 0 0 0 0 0 0 0 0 0 0 0 0 0 0 0
0 0 0 0 0 0 0 0 0 0 0 0 0 0 0 0 0 0 0 0 0 0 0 0 0 0 0 0 0 0 0 0 0 0 0 0 0 0 0 0 0 0 0 0 0 0 0 0 0
0 0 0 0 0 0 0 0 0 0 0 0 0 0 0 0 0 0 0 0 0 0 0 0 0 0 0 0 0 0 0 0 0 0 0 0 0 0 0 0 0 0 0 0 0 0 0 0 0
0 0 0 0 0 0 0 0 0 0 0 0 0 0 0 0 0 0 3 3 3 0 0 0 0 0 0 0 0 0 0 0 0 0 0 0 0 0 0 0 0 0 0 0 0 0 0 0 0
0 0 0 0 0 0 0 0 0 0 0 0 0 0 0 0 0 0 3 3 3 0 0 0 0 0 0 0 0 0 0 0 0 0 0 0 0 0 0 0 0 0 0 0 0 0 0 0 0
0 0 0 0 0 0 0 0 0 0 0 0 0 0 0 0 0 0 0 3 0 0 0 0 0 0 0 0 0 0 0 0 0 0 0 0 0 0 0 0 0 0 0 0 0 0 0 0 0
0 0 0 0 0 0 0 0 0 0 0 0 0 0 0 0 0 0 0 0 0 0 0 0 0 0 0 0 0 0 0 0 0 0 0 0 0 0 0 0 0 0 0 0 0 0 0 0 0
0 0 0 0 0 0 0 0 0 0 0 0 0 0 0 0 0 0 0 0 0 0 0 0 0 0 0 0 0 0 0 0 0 0 0 0 0 0 0 0 0 0 0 0 0 0 0 0 0
0 0 0 0 0 0 0 0 0 0 0 0 0 0 0 0 0 0 0 0 0 0 0 0 0 0 0 0 0 0 0 0 0 0 0 0 0 0 0 0 0 0 0 0 0 0 0 0 0
0 0 0 0 0 0 0 0 0 0 0 0 0 0 0 0 0 0 0 0 0 0 0 0 0 0 0 0 0 0 0 0 0 0 0 0 0 0 0 0 0 0 0 0 0 0 0 0 0
0 0 0 0 0 0 0 0 0 0 0 0 0 0 0 0 0 0 0 0 0 0 0 0 0 0 0 0 0 0 0 0 0 0 0 0 0 0 0 0 0 0 0 0 0 0 0 0 0
0 0 0 0 0 0 0 0 0 0 0 0 0 0 0 0 0 0 0 0 0 0 0 0 0 0 0 0 0 0 0 0 0 0 0 0 0 0 0 0 0 0 0 0 0 0 0 0 0